Location: Zihuatanejo
(17.6330°N, 101.5500°W)
Time: 11:53:06
(UTC-05:00)

Daily predictions for brighter satellites

Satellite Brightness Start Highest point End
(mag) Time Altitude Azimuth Time Altitude Azimuth Time Altitude Azimuth
Cosmos-2242 3.5 19:50:04 10° SSE 19:54:05 38° E 19:58:08 10° NNE
MSX 3.9 19:49:27 10° SSE 19:55:06 63° ENE 20:00:45 10° N
Cosmos 1269 Rocket 4.1 19:51:17 10° S 19:56:28 62° ESE 20:01:41 10° NNE
Cosmos 1076 Rocket 4.4 19:53:14 10° NNE 19:56:58 28° E 20:00:43 10° SE
SJ-6B 4.2 19:55:08 10° ESE 19:58:01 20° ENE 20:00:57 10° NNE
SMAP 4.5 19:56:27 10° S 20:00:52 43° W 20:05:17 10° NNW
CZ-2C R/B 3.3 19:56:05 10° S 20:01:02 57° W 20:05:50 10° NNW
Cosmos 1544 3.8 19:58:56 10° SSE 20:02:19 33° E 20:05:42 10° NNE
Cosmos 1766 Rocket 4.5 19:58:55 10° NNE 20:02:31 26° E 20:06:07 10° SE
Cosmos 1174 4.5 19:56:43 10° SSW 20:02:33 67° ESE 20:07:11 10° NNE
CZ-4 R/B 4.5 19:59:46 10° SSW 20:02:43 20° W 20:05:38 10° NW
Cosmos 1484 Rocket 2.8 20:00:49 10° SSE 20:04:30 56° ENE 20:08:17 10° N
Milstar 3 4.5 19:56:22 10° WNW 20:05:15 52° N 20:20:50 12° E
SAR-Lupe-4 4.5 20:02:57 10° SE 20:06:01 27° ENE 20:09:05 10° NNE
IUS-26 SRM-1 3.6 20:08:57 10° W 20:10:58 33° SSW 20:15:34 10° SE
Cosmos 2056 Rocket 3.6 20:06:07 10° NNW 20:11:33 89° ENE 20:16:54 10° SSE
CZ-3A R/B 4.4 20:03:58 10° W 20:11:41 23° SW 20:14:47 10° S
Delta 7925 Rocket 3.7 20:08:44 10° SW 20:13:13 48° SSE 20:17:28 14° E
Cosmos 1758 3.4 20:09:32 10° S 20:13:35 88° WNW 20:17:40 10° N
Cosmos 1842 Rocket 4.0 20:18:59 10° SSE 20:22:59 37° E 20:26:57 10° NNE
Cosmos 2034 Rocket 4.1 20:16:50 10° S 20:23:03 84° W 20:29:21 10° N
USA 215 3.8 20:16:42 10° NNE 20:23:05 59° NW 20:29:28 10° SW
Cosmos 1378 4.0 20:26:29 10° NNW 20:30:06 52° W 20:33:45 10° S
Helios 1A 4.1 20:30:32 23° E 20:31:09 23° ENE 20:34:30 10° NNE
Cosmos 1408 Rocket 3.4 20:29:00 10° N 20:33:18 78° E 20:37:35 10° S
Yuri Rocket 3.8 20:30:05 10° W 20:34:24 44° SSW 20:37:25 16° SE
SeaSat 1 3.4 20:33:02 22° E 20:34:39 26° ESE 20:38:41 10° SSE
AVUM R/B 3.2 20:35:16 10° SSW 20:38:12 70° WNW 20:41:07 10° NNE
ATLAS V CENTAUR R/B 3.8 20:35:30 10° W 20:38:41 88° N 20:46:14 22° E
Meteor 1-21 Rocket 4.1 20:39:11 10° N 20:44:37 59° E 20:50:05 10° SSE
SAR-Lupe-1 4.2 20:42:29 10° S 20:46:00 71° W 20:49:32 10° NNW
Meteor 1-29 3.3 20:45:53 10° N 20:49:20 64° WNW 20:52:45 10° SSW
NOAA 12 4.1 20:45:45 10° SSE 20:50:59 86° WSW 20:56:15 10° NNW
Resurs 1-3 4.0 20:52:48 39° ENE 20:52:48 39° ENE 20:56:32 10° N
Atlas Centaur 2 3.0 20:45:01 10° WNW 20:53:41 89° NNE 20:58:19 29° ESE
ALOS 3.9 20:58:48 20° NNE 20:58:48 20° NNE 21:00:32 10° NNE
GPS 2-12 Rocket1 3.1 20:53:24 10° W 20:57:50 63° N 20:58:42 50° NE
Aurora 2 Rocket 3.1 20:54:31 10° SW 20:58:28 46° SSE 20:59:09 43° SE
Cosmos 2251 Rocket 3.3 20:55:21 10° S 21:00:32 73° ESE 21:05:44 10° NNE
Resurs 01 Rocket 1.5 20:57:25 18° SSE 21:00:40 73° ENE 21:05:05 10° N
Hubble Space Telescope 1.8 20:58:01 10° SW 21:01:10 31° S 21:01:10 31° S
ASTEX 1 3.2 20:58:52 10° N 21:03:44 76° E 21:08:36 10° S
Cosmos 1743 Rocket 3.4 20:59:49 10° N 21:04:12 80° E 21:06:08 33° SSE
Cosmos 1943 4.4 20:59:23 10° SW 21:04:42 42° WNW 21:10:00 10° N
SWIFT 3.8 21:02:06 10° WSW 21:05:41 27° SSW 21:06:31 25° S
Cosmos 494 Rocket 3.9 21:02:19 10° S 21:07:29 64° ESE 21:08:48 47° NE
Cosmos 1452 Rocket 3.9 21:02:32 10° NNW 21:07:42 62° WSW 21:12:51 10° S
Cosmos 2084 Rocket 3.3 21:03:59 10° SSW 21:07:47 70° S 21:07:47 70° S
Cosmos 1733 4.0 21:05:30 10° SSW 21:09:16 52° W 21:13:03 10° N
CENTAUR R/B 4.5 21:08:39 10° WSW 21:13:18 25° WNW 21:18:17 10° N
Cosmos 2369 Rocket 4.0 21:11:25 10° NNE 21:12:52 16° NNE 21:12:52 16° NNE
BREEZE-M DEB (TANK) 3.6 21:16:09 10° NW 21:19:57 81° SW 21:34:47 10° SE
Cosmos 1420 Rocket 4.0 21:21:33 10° NNW 21:26:52 81° WSW 21:27:14 75° SSW
Spot 2 Rocket 4.1 21:22:07 10° S 21:27:02 54° WSW 21:31:56 10° NNW
Delta 168 4.3 21:25:28 10° WNW 21:29:39 43° N 21:29:39 43° N
Cosmos 1092 Rocket 4.5 21:43:42 10° NNW 21:49:41 56° W 21:52:10 34° SSW
Centaur D-1AR AC-48 4.4 12:38:55 10° WSW 22:27:20 56° SW 22:28:49 54° S
CZ-3C R/B 4.2 22:16:19 10° W 22:34:46 26° SW 22:36:18 25° SW
Atlas Centaur 2 4.5 22:36:07 10° W 22:41:00 27° WSW 22:41:00 27° WSW
